Content
SEND FEEDBACK

Daily
Averages
Monthly
Summary
United States of America

ORPHA, WYOMING


Home > North America > United States > Wyoming
Elevation: 4815 feet     Latitude: 42 46N     Longitude: 105 23W

WEATHER
 
SELECT A DAY
Number of Records: 161,306;   Date Range: 5/28/98 - 7/7/14
 
SHARE

PRINT THIS DATA

[ ← Previous Day ]
WEATHER ALMANAC - JANUARY 23, 2013
[ Next Day → ]
[ °C ]   °F
Weather ElementAverageHighLow
Temperature38.6 °F52 °F (12:53 pm)24.1 °F (1:53 am)
Dewpoint5.1 °F10 °F (8:53 pm)-2 °F (7:53 am)
Humidity27.4 %51 % (1:53 am)13 % (10:53 am)
Barometer30.09 in30.16 in (9:53 am)30.03 in (10:53 pm)
Wind Speed5.2 mph15 mph (7:53 am)
Wind Gust26.5 mph (7:53 am)
Weather ElementAverage
Visibility10 mi
Wind DirectionSSE (150.9 °)

Weather ElementTotal
Precipitation---
Heating Degree Days27 (Base 65)
Averaged from 22 records on January 23, 2013
WEATHER CONDITIONS BREAKOUT
WIND DIRECTION BREAKOUT
WEATHER BY HOUR - JANUARY 23, 2013
[ °C ]   °F
Local TimeTemperatureDewpointHumidityBarometerVisibilityWind DirectionWind SpeedGust SpeedPrecipitationEventsConditions
1:53 AM24.1 °F8.1 °F51 %30.09 in10.0 miCalmClear
2:53 AM27.0 °F7.0 °F43 %30.08 in10.0 miCalmClear
3:53 AM35.1 °F5.0 °F28 %30.04 in10.0 miNNW (340°)4.6 mphClear
4:53 AM35.1 °F3.9 °F27 %30.07 in10.0 miNorth (350°)5.8 mphClear
5:53 AM41.0 °F1.0 °F19 %30.08 in10.0 miWNW (300°)8.1 mphClear
6:53 AM37.9 °F1.0 °F21 %30.11 in10.0 miNNE (20°)4.6 mphClear
7:53 AM46.0 °F-2.0 °F14 %30.09 in10.0 miWNW (300°)15.0 mph26.5 mphClear
8:53 AM44.1 °F1.0 °F17 %30.14 in10.0 miNorth (350°)6.9 mphClear
9:53 AM45.0 °F3.9 °F18 %30.16 in10.0 miNorth (350°)4.6 mphClear
10:53 AM48.9 °F0.0 °F13 %30.15 in10.0 miCalmClear
11:53 AM48.9 °F3.0 °F15 %30.14 in10.0 miSSE (150°)5.8 mphClear
12:53 PM52.0 °F1.9 °F13 %30.10 in10.0 miSSE (160°)6.9 mphClear
1:53 PM51.1 °F5.0 °F15 %30.10 in10.0 miSSE (150°)10.4 mphClear
3:53 PM45.0 °F6.1 °F20 %30.09 in10.0 miSSE (150°)6.9 mphClear
4:53 PM42.1 °F7.0 °F24 %30.10 in10.0 miSSE (150°)6.9 mphClear
5:53 PM37.0 °F7.0 °F29 %30.09 in10.0 miSSE (160°)3.5 mphClear
6:53 PM35.1 °F8.1 °F33 %30.10 in10.0 miEast (100°)3.5 mphClear
7:53 PM34.0 °F9.0 °F35 %30.07 in10.0 miEast (90°)11.5 mphClear
8:53 PM30.0 °F10.0 °F43 %30.08 in10.0 miCalmClear
9:53 PM30.0 °F9.0 °F41 %30.06 in10.0 miEast (90°)5.8 mphClear
10:53 PM30.9 °F9.0 °F40 %30.03 in10.0 miESE (110°)4.6 mphClear
11:53 PM28.9 °F9.0 °F43 %30.03 in10.0 miCalmClear
Hourly data recorded from KDGW, located miles away from Orpha, Wyoming







STORIES FROM OUR PARTNERS